Time,TemperatureF,DewpointF,PressureIn,WindDirection,WindDirectionDegrees,WindSpeedMPH,WindSpeedGustMPH,Humidity,HourlyPrecipIn,Conditions,Clouds,dailyrainin,SoftwareType,DateUTC
2013-04-21 00:01:00,49.0,49.0,30.39,NW,317,2.0,6.0,100,0.00,,,0.01,,2013-04-21 07:01:00,
2013-04-21 00:11:00,49.0,49.0,30.38,WNW,284,4.0,9.0,100,0.00,,,0.01,,2013-04-21 07:11:00,
2013-04-21 00:21:00,49.0,49.0,30.38,WNW,284,4.0,9.0,100,0.00,,,0.01,,2013-04-21 07:21:00,
2013-04-21 00:31:00,49.0,49.0,30.37,NE,44,4.0,12.0,100,0.00,,,0.01,,2013-04-21 07:31:00,
2013-04-21 00:41:00,49.0,49.0,30.37,NE,44,4.0,12.0,100,0.00,,,0.01,,2013-04-21 07:41:00,
2013-04-21 00:52:00,49.0,49.0,30.37,NNE,23,2.0,4.0,100,0.00,,,0.01,,2013-04-21 07:52:00,
2013-04-21 01:01:00,49.0,49.0,30.37,North,360,2.0,4.0,100,0.00,,,0.01,,2013-04-21 08:01:00,
2013-04-21 01:12:00,49.0,49.0,30.37,North,360,2.0,4.0,100,0.00,,,0.01,,2013-04-21 08:12:00,
2013-04-21 01:21:00,49.0,49.0,30.38,WNW,300,1.0,3.0,100,0.00,,,0.01,,2013-04-21 08:21:00,
2013-04-21 01:32:00,49.0,49.0,30.38,North,5,3.0,5.0,100,0.00,,,0.01,,2013-04-21 08:32:00,
2013-04-21 01:41:00,49.0,49.0,30.38,North,5,3.0,5.0,100,0.00,,,0.01,,2013-04-21 08:41:00,
2013-04-21 01:52:00,49.0,49.0,30.38,NW,314,4.0,5.0,100,0.00,,,0.01,,2013-04-21 08:52:00,
2013-04-21 02:01:00,49.0,49.0,30.38,WNW,299,5.0,10.0,100,0.00,,,0.01,,2013-04-21 09:01:00,
2013-04-21 02:11:00,49.0,49.0,30.38,WNW,299,5.0,10.0,100,0.00,,,0.01,,2013-04-21 09:11:00,
2013-04-21 02:21:00,49.0,49.0,30.38,WNW,294,5.0,14.0,100,0.00,,,0.01,,2013-04-21 09:21:00,
2013-04-21 02:32:00,49.0,49.0,30.37,WNW,301,4.0,9.0,100,0.00,,,0.01,,2013-04-21 09:32:00,
2013-04-21 02:42:00,49.0,49.0,30.37,WNW,301,4.0,9.0,100,0.00,,,0.01,,2013-04-21 09:42:00,
2013-04-21 02:52:00,49.0,49.0,30.37,NW,325,5.0,10.0,100,0.00,,,0.01,,2013-04-21 09:52:00,
2013-04-21 03:02:00,49.0,49.0,30.37,NW,317,4.0,10.0,100,0.00,,,0.01,,2013-04-21 10:02:00,
2013-04-21 03:12:00,49.0,49.0,30.37,NW,317,4.0,10.0,100,0.00,,,0.01,,2013-04-21 10:12:00,
2013-04-21 03:22:00,49.0,49.0,30.37,NNE,16,2.0,4.0,100,0.00,,,0.01,,2013-04-21 10:22:00,
2013-04-21 03:32:00,49.0,49.0,30.37,NNE,24,2.0,4.0,100,0.00,,,0.00,,2013-04-21 10:32:00,
2013-04-21 03:42:00,49.0,49.0,30.37,NNE,24,2.0,4.0,100,0.00,,,0.00,,2013-04-21 10:42:00,
2013-04-21 03:52:00,49.0,49.0,30.36,North,10,2.0,3.0,100,0.00,,,0.00,,2013-04-21 10:52:00,
2013-04-21 04:02:00,49.0,49.0,30.36,NW,310,5.0,7.0,100,0.00,,,0.00,,2013-04-21 11:02:00,
2013-04-21 04:11:00,49.0,49.0,30.36,NW,310,5.0,7.0,100,0.00,,,0.00,,2013-04-21 11:11:00,
2013-04-21 04:22:00,48.0,48.0,30.35,WNW,301,3.0,4.0,100,0.00,,,0.00,,2013-04-21 11:22:00,
2013-04-21 04:33:00,48.0,48.0,30.35,WNW,296,4.0,6.0,100,0.00,,,0.00,,2013-04-21 11:33:00,
2013-04-21 04:42:00,48.0,48.0,30.35,WNW,296,4.0,6.0,100,0.00,,,0.00,,2013-04-21 11:42:00,
2013-04-21 04:51:00,48.0,48.0,30.35,NW,311,2.0,4.0,100,0.00,,,0.00,,2013-04-21 11:51:00,
2013-04-21 05:02:00,48.0,48.0,30.35,NW,306,0.0,2.0,100,0.00,,,0.00,,2013-04-21 12:02:00,
2013-04-21 05:12:00,48.0,48.0,30.35,NW,306,0.0,2.0,100,0.00,,,0.00,,2013-04-21 12:12:00,
2013-04-21 05:22:00,48.0,48.0,30.36,NW,306,0.0,2.0,100,0.00,,,0.00,,2013-04-21 12:22:00,
2013-04-21 05:31:00,48.0,48.0,30.36,NW,315,2.0,3.0,100,0.00,,,0.00,,2013-04-21 12:31:00,
2013-04-21 05:42:00,48.0,48.0,30.36,NW,315,2.0,3.0,100,0.00,,,0.00,,2013-04-21 12:42:00,
2013-04-21 05:52:00,48.0,48.0,30.36,SW,234,0.0,3.0,100,0.00,,,0.00,,2013-04-21 12:52:00,
2013-04-21 06:01:00,48.0,48.0,30.36,WNW,297,0.0,2.0,100,0.00,,,0.00,,2013-04-21 13:01:00,
2013-04-21 06:11:00,48.0,48.0,30.36,WNW,297,0.0,2.0,100,0.00,,,0.00,,2013-04-21 13:11:00,
2013-04-21 06:21:00,48.0,48.0,30.35,South,189,2.0,6.0,100,0.01,,,0.01,,2013-04-21 13:21:00,
2013-04-21 06:32:00,47.0,47.0,30.35,NE,50,3.0,5.0,100,0.01,,,0.01,,2013-04-21 13:32:00,
2013-04-21 06:42:00,47.0,47.0,30.35,NE,50,3.0,5.0,100,0.01,,,0.01,,2013-04-21 13:42:00,
2013-04-21 06:52:00,47.0,47.0,30.35,NNE,32,2.0,4.0,100,0.01,,,0.01,,2013-04-21 13:52:00,
2013-04-21 07:01:00,47.0,47.0,30.35,ENE,68,2.0,3.0,100,0.01,,,0.01,,2013-04-21 14:01:00,
2013-04-21 07:11:00,47.0,47.0,30.35,ENE,68,2.0,3.0,100,0.01,,,0.01,,2013-04-21 14:11:00,
2013-04-21 07:21:00,47.0,47.0,30.36,ENE,59,0.0,2.0,100,0.00,,,0.01,,2013-04-21 14:21:00,
2013-04-21 07:31:00,47.0,47.0,30.36,ENE,59,0.0,1.0,100,0.00,,,0.01,,2013-04-21 14:31:00,
2013-04-21 07:42:00,47.0,47.0,30.36,ENE,59,0.0,1.0,100,0.00,,,0.01,,2013-04-21 14:42:00,
2013-04-21 07:52:00,47.0,47.0,30.36,ENE,59,1.0,2.0,100,0.00,,,0.01,,2013-04-21 14:52:00,
2013-04-21 08:01:00,47.0,47.0,30.36,NE,55,0.0,2.0,100,0.00,,,0.01,,2013-04-21 15:01:00,
2013-04-21 08:11:00,47.0,47.0,30.36,NE,55,0.0,2.0,100,0.00,,,0.01,,2013-04-21 15:11:00,
2013-04-21 08:22:00,48.0,48.0,30.36,NE,55,1.0,2.0,100,0.00,,,0.01,,2013-04-21 15:22:00,
2013-04-21 08:33:00,48.0,48.0,30.36,SE,142,2.0,3.0,100,0.00,,,0.01,,2013-04-21 15:33:00,
2013-04-21 08:42:00,48.0,48.0,30.36,SE,142,2.0,3.0,100,0.00,,,0.01,,2013-04-21 15:42:00,
2013-04-21 08:53:00,48.0,48.0,30.37,ESE,121,2.0,4.0,100,0.00,,,0.01,,2013-04-21 15:53:00,
2013-04-21 09:03:00,49.0,49.0,30.36,ESE,122,1.0,4.0,100,0.00,,,0.01,,2013-04-21 16:03:00,
2013-04-21 09:12:00,49.0,49.0,30.36,ESE,122,1.0,4.0,100,0.00,,,0.01,,2013-04-21 16:12:00,
2013-04-21 09:22:00,49.0,49.0,30.36,SE,146,1.0,3.0,100,0.00,,,0.01,,2013-04-21 16:22:00,
2013-04-21 09:32:00,49.0,49.0,30.35,West,271,1.0,4.0,100,0.00,,,0.01,,2013-04-21 16:32:00,
2013-04-21 09:42:00,49.0,49.0,30.35,West,271,1.0,4.0,100,0.00,,,0.01,,2013-04-21 16:42:00,
2013-04-21 09:52:00,48.0,48.0,30.35,West,259,3.0,4.0,100,0.00,,,0.01,,2013-04-21 16:52:00,
2013-04-21 10:01:00,48.0,48.0,30.35,WNW,288,2.0,5.0,100,0.00,,,0.01,,2013-04-21 17:01:00,
2013-04-21 10:12:00,49.0,49.0,30.35,South,180,2.0,4.0,100,0.00,,,0.01,,2013-04-21 17:12:00,
2013-04-21 10:22:00,49.0,49.0,30.35,South,180,2.0,4.0,100,0.00,,,0.01,,2013-04-21 17:22:00,
2013-04-21 10:32:00,49.0,49.0,30.35,WNW,285,3.0,4.0,100,0.00,,,0.01,,2013-04-21 17:32:00,
2013-04-21 10:42:00,49.0,49.0,30.35,WNW,285,3.0,4.0,100,0.00,,,0.01,,2013-04-21 17:42:00,
2013-04-21 10:52:00,49.0,49.0,30.35,West,267,2.0,6.0,100,0.00,,,0.01,,2013-04-21 17:52:00,
2013-04-21 11:02:00,49.0,49.0,30.36,SSW,207,3.0,6.0,100,0.00,,,0.01,,2013-04-21 18:02:00,
2013-04-21 11:11:00,49.0,49.0,30.36,SSW,207,3.0,6.0,100,0.00,,,0.01,,2013-04-21 18:11:00,
2013-04-21 11:21:00,49.0,49.0,30.36,SSW,192,5.0,7.0,100,0.00,,,0.01,,2013-04-21 18:21:00,
2013-04-21 11:32:00,50.0,50.0,30.36,SSW,202,4.0,7.0,100,0.00,,,0.01,,2013-04-21 18:32:00,
2013-04-21 11:42:00,50.0,50.0,30.36,SSW,202,4.0,7.0,100,0.00,,,0.01,,2013-04-21 18:42:00,
2013-04-21 11:52:00,50.0,50.0,30.36,SW,223,4.0,9.0,100,0.00,,,0.01,,2013-04-21 18:52:00,
2013-04-21 12:02:00,50.0,50.0,30.36,SW,224,5.0,10.0,100,0.00,,,0.01,,2013-04-21 19:02:00,
2013-04-21 12:11:00,50.0,50.0,30.36,SW,224,5.0,10.0,100,0.00,,,0.01,,2013-04-21 19:11:00,
2013-04-21 12:21:00,51.0,51.0,30.36,SW,227,3.0,10.0,100,0.00,,,0.01,,2013-04-21 19:21:00,
2013-04-21 12:32:00,51.0,51.0,30.36,SW,222,4.0,9.0,100,0.00,,,0.01,,2013-04-21 19:32:00,
2013-04-21 12:42:00,51.0,51.0,30.36,SW,222,4.0,9.0,100,0.00,,,0.01,,2013-04-21 19:42:00,
2013-04-21 12:52:00,51.0,51.0,30.36,SW,221,6.0,10.0,100,0.00,,,0.01,,2013-04-21 19:52:00,
2013-04-21 13:01:00,51.0,51.0,30.36,SSW,211,4.0,9.0,100,0.00,,,0.01,,2013-04-21 20:01:00,
2013-04-21 13:11:00,51.0,51.0,30.36,SSW,211,4.0,9.0,100,0.00,,,0.01,,2013-04-21 20:11:00,
2013-04-21 13:21:00,51.0,51.0,30.36,SW,224,5.0,10.0,100,0.00,,,0.01,,2013-04-21 20:21:00,
2013-04-21 13:31:00,51.0,51.0,30.35,WSW,258,6.0,10.0,100,0.00,,,0.01,,2013-04-21 20:31:00,
2013-04-21 13:41:00,51.0,51.0,30.35,WSW,258,6.0,10.0,100,0.00,,,0.01,,2013-04-21 20:41:00,
2013-04-21 13:51:00,51.0,51.0,30.35,WSW,242,5.0,10.0,100,0.00,,,0.01,,2013-04-21 20:51:00,
2013-04-21 14:02:00,51.0,51.0,30.35,SW,236,5.0,9.0,100,0.00,,,0.01,,2013-04-21 21:02:00,
2013-04-21 14:12:00,51.0,51.0,30.35,West,259,6.0,10.0,100,0.00,,,0.01,,2013-04-21 21:12:00,
2013-04-21 14:21:00,51.0,51.0,30.35,West,259,6.0,10.0,100,0.00,,,0.01,,2013-04-21 21:21:00,
2013-04-21 14:33:00,50.0,50.0,30.36,WNW,286,6.0,10.0,100,0.00,,,0.01,,2013-04-21 21:33:00,
2013-04-21 14:43:00,50.0,50.0,30.36,WNW,286,6.0,10.0,100,0.00,,,0.01,,2013-04-21 21:43:00,
2013-04-21 14:53:00,51.0,51.0,30.36,WSW,254,4.0,11.0,100,0.00,,,0.01,,2013-04-21 21:53:00,
2013-04-21 15:02:00,50.0,50.0,30.36,West,259,4.0,10.0,100,0.00,,,0.01,,2013-04-21 22:02:00,
2013-04-21 15:12:00,50.0,50.0,30.36,West,259,4.0,10.0,100,0.00,,,0.01,,2013-04-21 22:12:00,
2013-04-21 15:22:00,51.0,51.0,30.35,West,271,5.0,7.0,100,0.00,,,0.01,,2013-04-21 22:22:00,
2013-04-21 15:32:00,51.0,51.0,30.35,WSW,237,6.0,11.0,100,0.00,,,0.01,,2013-04-21 22:32:00,
2013-04-21 15:43:00,51.0,51.0,30.35,WSW,237,6.0,11.0,100,0.00,,,0.01,,2013-04-21 22:43:00,
2013-04-21 15:52:00,51.0,51.0,30.35,West,277,6.0,7.0,100,0.00,,,0.01,,2013-04-21 22:52:00,
2013-04-21 16:02:00,51.0,51.0,30.35,WSW,240,4.0,7.0,100,0.00,,,0.01,,2013-04-21 23:02:00,
2013-04-21 16:12:00,51.0,51.0,30.35,WSW,240,4.0,7.0,100,0.00,,,0.01,,2013-04-21 23:12:00,
2013-04-21 16:22:00,51.0,51.0,30.35,West,263,4.0,9.0,100,0.00,,,0.01,,2013-04-21 23:22:00,
2013-04-21 16:32:00,51.0,51.0,30.35,WNW,302,2.0,7.0,100,0.00,,,0.01,,2013-04-21 23:32:00,
2013-04-21 16:42:00,51.0,51.0,30.35,WNW,302,2.0,7.0,100,0.00,,,0.01,,2013-04-21 23:42:00,
2013-04-21 16:52:00,51.0,51.0,30.35,West,260,5.0,8.0,100,0.00,,,0.01,,2013-04-21 23:52:00,
2013-04-21 17:01:00,51.0,51.0,30.35,West,266,6.0,8.0,100,0.00,,,0.01,,2013-04-22 00:01:00,
2013-04-21 17:11:00,51.0,51.0,30.35,West,266,6.0,8.0,100,0.00,,,0.01,,2013-04-22 00:11:00,
2013-04-21 17:21:00,51.0,51.0,30.34,WSW,258,5.0,9.0,100,0.00,,,0.01,,2013-04-22 00:21:00,
2013-04-21 17:31:00,51.0,51.0,30.35,NW,307,6.0,9.0,100,0.00,,,0.01,,2013-04-22 00:31:00,
2013-04-21 17:42:00,51.0,51.0,30.35,NW,307,6.0,9.0,100,0.00,,,0.01,,2013-04-22 00:42:00,
2013-04-21 17:51:00,51.0,51.0,30.34,WNW,295,4.0,6.0,100,0.00,,,0.01,,2013-04-22 00:51:00,
2013-04-21 18:01:00,51.0,51.0,30.33,NW,310,5.0,9.0,100,0.00,,,0.01,,2013-04-22 01:01:00,
2013-04-21 18:11:00,51.0,51.0,30.33,NW,310,5.0,9.0,100,0.00,,,0.01,,2013-04-22 01:11:00,
2013-04-21 18:21:00,51.0,51.0,30.33,WNW,288,4.0,9.0,100,0.00,,,0.01,,2013-04-22 01:21:00,
2013-04-21 18:32:00,51.0,51.0,30.33,West,281,5.0,10.0,100,0.00,,,0.01,,2013-04-22 01:32:00,
2013-04-21 18:41:00,51.0,51.0,30.33,West,281,5.0,10.0,100,0.00,,,0.01,,2013-04-22 01:41:00,
2013-04-21 18:51:00,51.0,51.0,30.33,WNW,294,6.0,10.0,100,0.00,,,0.01,,2013-04-22 01:51:00,
2013-04-21 19:01:00,50.0,50.0,30.33,WNW,298,6.0,11.0,100,0.00,,,0.01,,2013-04-22 02:01:00,
2013-04-21 19:11:00,50.0,50.0,30.33,WNW,298,6.0,11.0,100,0.00,,,0.01,,2013-04-22 02:11:00,
2013-04-21 19:21:00,50.0,50.0,30.33,NW,306,6.0,11.0,100,0.00,,,0.01,,2013-04-22 02:21:00,
2013-04-21 19:31:00,50.0,50.0,30.33,West,274,5.0,11.0,100,0.00,,,0.01,,2013-04-22 02:31:00,
2013-04-21 19:42:00,50.0,50.0,30.33,West,274,5.0,11.0,100,0.00,,,0.01,,2013-04-22 02:42:00,
2013-04-21 19:51:00,50.0,50.0,30.33,NW,304,5.0,11.0,100,0.00,,,0.01,,2013-04-22 02:51:00,
2013-04-21 20:02:00,49.0,49.0,30.33,NW,309,7.0,10.0,100,0.00,,,0.01,,2013-04-22 03:02:00,
2013-04-21 20:11:00,49.0,49.0,30.33,NW,309,7.0,10.0,100,0.00,,,0.01,,2013-04-22 03:11:00,
2013-04-21 20:22:00,49.0,49.0,30.33,WNW,286,5.0,9.0,100,0.00,,,0.01,,2013-04-22 03:22:00,
2013-04-21 20:33:00,49.0,49.0,30.33,WNW,302,5.0,10.0,100,0.00,,,0.01,,2013-04-22 03:33:00,
2013-04-21 20:42:00,49.0,49.0,30.33,WNW,302,5.0,10.0,100,0.00,,,0.01,,2013-04-22 03:42:00,
2013-04-21 20:52:00,49.0,49.0,30.33,WNW,295,4.0,7.0,100,0.00,,,0.01,,2013-04-22 03:52:00,
2013-04-21 21:02:00,49.0,49.0,30.34,WNW,298,6.0,11.0,100,0.00,,,0.01,,2013-04-22 04:02:00,
2013-04-21 21:12:00,49.0,49.0,30.34,WNW,298,6.0,11.0,100,0.00,,,0.01,,2013-04-22 04:12:00,
2013-04-21 21:23:00,49.0,49.0,30.34,NW,315,3.0,6.0,100,0.00,,,0.01,,2013-04-22 04:23:00,
2013-04-21 21:32:00,49.0,49.0,30.34,NNW,328,2.0,6.0,100,0.00,,,0.01,,2013-04-22 04:32:00,
2013-04-21 21:43:00,49.0,49.0,30.34,NNW,328,2.0,6.0,100,0.00,,,0.01,,2013-04-22 04:43:00,
2013-04-21 21:52:00,50.0,50.0,30.35,WNW,296,5.0,9.0,100,0.00,,,0.01,,2013-04-22 04:52:00,
2013-04-21 22:02:00,50.0,50.0,30.35,NNW,346,6.0,9.0,100,0.00,,,0.01,,2013-04-22 05:02:00,
2013-04-21 22:11:00,50.0,50.0,30.35,NNW,346,6.0,9.0,100,0.00,,,0.01,,2013-04-22 05:11:00,
2013-04-21 22:22:00,49.0,49.0,30.35,North,355,6.0,12.0,100,0.00,,,0.01,,2013-04-22 05:22:00,
2013-04-21 22:32:00,49.0,49.0,30.35,NNE,12,9.0,13.0,100,0.00,,,0.01,,2013-04-22 05:32:00,
2013-04-21 22:42:00,49.0,49.0,30.35,NNE,12,9.0,13.0,100,0.00,,,0.01,,2013-04-22 05:42:00,
2013-04-21 22:52:00,49.0,49.0,30.35,NNW,345,10.0,14.0,100,0.00,,,0.01,,2013-04-22 05:52:00,
2013-04-21 23:02:00,49.0,49.0,30.36,North,355,7.0,12.0,100,0.00,,,0.01,,2013-04-22 06:02:00,
2013-04-21 23:11:00,49.0,49.0,30.36,North,355,7.0,12.0,100,0.00,,,0.01,,2013-04-22 06:11:00,
2013-04-21 23:21:00,49.0,49.0,30.36,NNW,344,8.0,11.0,100,0.00,,,0.01,,2013-04-22 06:21:00,
2013-04-21 23:32:00,49.0,49.0,30.36,NW,319,5.0,12.0,100,0.00,,,0.01,,2013-04-22 06:32:00,
2013-04-21 23:41:00,49.0,49.0,30.36,NW,319,5.0,12.0,100,0.00,,,0.01,,2013-04-22 06:41:00,
2013-04-21 23:51:00,49.0,49.0,30.36,NNW,338,6.0,11.0,100,0.00,,,0.01,,2013-04-22 06:51:00,